Location: Newark
(52.5694°N, 1.3190°W)
Time: 21:01:32
(UTC+00:00)

N. Korean satellite - Pass Details

Date: 31 January 2020
Orbit: 456 x 505 km, 97.2° (Epoch: 26 February)

Event Time Altitude Azimuth Distance (km) Brightness Sun altitude
Rises 06:14:39 0° 11° (NNE) 2,556 10.3 -14.4°
Reaches altitude 10° 06:16:43 10° 10° (N) 1,680 9.3 -14.1°
Maximum altitude 06:20:19 74° 286° (WNW) 517 6.5 -13.6°
Drops below altitude 10° 06:23:57 10° 201° (SSW) 1,692 9.2 -13.0°
Sets 06:26:02 0° 200° (SSW) 2,577 10.2 -12.7°
